CZ-6A DEB, 60823

Orbit data source: Space-Track

CZ-6A DEB, 60823 is space debris in LEO originally from a launch on Tue, 06 Aug 2024 UTC launched from the Taiyaun Space Center, China (TSC). Debris objects in space refer to the collection of defunct objects orbiting the Earth. Examples of debris include non-operational satellites, rocket bodies, and fragments generated from explosions, collisions, or faulty payload assembly.

Loading next visibility...
Identifier
60823, 2024-140HA
Orbit
LEO
Country
Flag of CNCN / PRC
Related business
Manufacturer
SAST
Mission
Spacecraft
Bus & Motor
Unknown
Mass
Unknown
Launch date (UTC)
2024-08-06 (1 year ago)
Launch vehicle
Unknown
Launch site
Taiyaun Space Center, China (TSC)
Object type
Payload
Rocket body
Debris
Shape & HBR
Unknown shape, 0.2 m
Radar Cross Section
Medium (>0.1 m² and <1 m²)

Expand to show TLE details & history
Last TLE update: 10 hours ago

TLE from 10 hours ago
0 CZ-6A DEB
1 60823U 24140HA  25350.85695029  .00000589  00000-0  44407-3 0  9993
2 60823  89.0348 300.7004 0235611 141.6692 220.1488 13.80624680 67662
Epoch: 2025-12-16T20:34Z
TLE epoch observation values (Epoch: 2025-12-16T20:34:00.505Z)
Latitude
-0.00004°
Longitude
-93.53686°
Altitude
1,098.535 km
Speed
7.236 km/s
True Right ascension
20h 02m 48s
True Declination
0° 00' 00"
Sunlit
Object was in daylight at epoch
Visualization orbit readout
Latitude
Unknown
Longitude
Unknown
Altitude
Unknown
Speed
Unknown
Apparent Right ascension
Unknown
Apparent Declination
Unknown
Sunlit
N/A
Visualization observer readout
Local Sidereal Time
05:28:01
Azimuth
Unknown
Elevation
Unknown
Doppler factor
Unknown
Orbital elements
Apogee altitude
1,131.541 km
Perigee altitude
785.814 km
Semi-major axis
7,336.814 km
Eccentricity
0.02356
Inclination
89.0348°
RAAN
300.7004°
Arg. of periapsis
141.6692°
True anomaly
218.44658°
Mean anomaly
220.1488°
Eccentric anomaly
219.29388°
Mean motion
3.45368 °/min
Orbital period
104.24 mins
BSTAR
0.00044407
Loading maneuver chart data...
Computing Atmospheric mass density...

Documentation

Showing up to 5 results
|